Regional Weather Roundup
Issued by NWS

Home | Current Version | Previous Version | Graphics & Text | Print | Product List | Glossary On
Versions: 1 2 3 4 5 6 7 8 9 10 11 12 13 14 15 16 17 18 19 20 21 22 23 24 25 26 27 28 29 30 31 32 33 34 35 36 37 38 39 40 41 42 43 44 45 46 47 48 49 50
820
ASUS43 KOAX 252110
RWRNE

WEATHER ROUNDUP FOR NEBRASKA
NATIONAL WEATHER SERVICE OMAHA NE
400 PM CDT SUN JUN 25 2017

NOTES: SATELLITE DATA IS BEING USED TO AUGMENT CLOUD COVER ABOVE
       12000 FEET.
       "FAIR" INDICATES FEW OR NO CLOUDS BELOW 12,000 FEET WITH NO
       SIGNIFICANT WEATHER AND/OR OBSTRUCTIONS TO VISIBILITY.

  * THESE STATIONS DO NOT REPORT WEATHER SUCH AS RAIN...SNOW OR FOG.

NEZ001>004-019>022-054>056-252200-
NEBRASKA PANHANDLE

CITY           SKY/WX    TMP DP  RH WIND       PRES   REMARKS
SCOTTSBLUFF    MOSUNNY   77  42  28 E8        30.27F
ALLIANCE       PTSUNNY   77  39  25 VRB5      30.27F
CHADRON        MOSUNNY   78  39  24 CALM      30.23F
GORDON         FAIR      75  40  28 W7        30.26F
KIMBALL        MOSUNNY   69  49  48 SE3G9     30.33F
SIDNEY         PTSUNNY   71  47  42 SE7       30.32F
$$

NEZ057>060-069>072-079>082-252200-
SOUTHWEST NEBRASKA

CITY           SKY/WX    TMP DP  RH WIND       PRES   REMARKS
NORTH PLATTE   SUNNY     78  46  32 SE9       30.28F
IMPERIAL       MOSUNNY   70  49  47 SE15      30.31F
LEXINGTON      SUNNY     75  41  29 S8        30.30F
MCCOOK         CLOUDY    73  47  39 S16       30.30F
OGALLALA       SUNNY     77  42  29 S14       30.29S
$$

NEZ005>010-023>029-035>040-094-252200-
NORTH CENTRAL NEBRASKA

CITY           SKY/WX    TMP DP  RH WIND       PRES   REMARKS
VALENTINE      MOSUNNY   77  30  17 CALM      30.25F
AINSWORTH      SUNNY     75  38  26 CALM      30.26F
BROKEN BOW     SUNNY     75  38  26 E3        30.28F
O`NEILL        SUNNY     74  37  26 S3        30.27F
ORD            SUNNY     77  30  17 E6        30.26F
THEDFORD       MOSUNNY   78  37  23 SE8       30.27S
$$

NEZ041-046>049-061>064-073>077-083>087-252200-
SOUTH CENTRAL NEBRASKA

CITY           SKY/WX    TMP DP  RH WIND       PRES   REMARKS
GRAND ISLAND   SUNNY     76  37  24 NE5       30.29F
AURORA         SUNNY     75  38  26 CALM      30.28F
HASTINGS       SUNNY     74  40  29 SW8       30.30F
HEBRON         SUNNY     75  48  38 S7        30.29F
HOLDREGE       SUNNY     70  41  35 SE9       30.31S
KEARNEY *      SUNNY     75  39  27 S10       30.30F
YORK           SUNNY     75  37  25 W7        30.28F
$$

NEZ011>018-030>034-042>045-252200-
NORTHEAST NEBRASKA

CITY           SKY/WX    TMP DP  RH WIND       PRES   REMARKS
NORFOLK        SUNNY     73  40  30 VRB3      30.26F
ALBION         SUNNY     76  33  20 S5        30.27F
BLAIR          SUNNY     74  42  30 NW12      30.25F
FREMONT        SUNNY     74  40  29 N7        30.27S
TEKAMAH        SUNNY     76  37  24 NW9       30.24F
WAYNE          SUNNY     73  38  27 NE12      30.26F
$$

NEZ050>053-065>068-078-088>093-252200-
SOUTHEAST NEBRASKA

CITY           SKY/WX    TMP DP  RH WIND       PRES   REMARKS
LINCOLN        SUNNY     77  41  27 VRB6      30.27F
OMAHA EPPLEY   MOSUNNY   77  42  28 W12       30.25F
BEATRICE       SUNNY     77  44  30 NW7       30.27F
FALLS CITY     MOSUNNY   74  48  39 NW10      30.27S
NEBRASKA CITY  SUNNY     74  46  35 NW8       30.27F
PLATTSMOUTH    SUNNY     73  41  31 NW5G20    30.27S
$$

NEZ044-045-051>053-067-252200-
OMAHA AREA

CITY           SKY/WX    TMP DP  RH WIND       PRES   REMARKS
OMAHA EPPLEY   MOSUNNY   77  42  28 W12       30.25F
BLAIR          SUNNY     74  42  30 NW12      30.25F
FREMONT        SUNNY     74  40  29 N7        30.27S
MILLARD        SUNNY     76  45  32 W9G17     30.26S
OFFUTT AFB     SUNNY     75  42  31 W6        30.25F
PLATTSMOUTH    SUNNY     73  41  31 NW5G20    30.27S
WAHOO          FAIR      76  37  24 NW6       30.26F
$$




USA.gov is the U.S. government's official web portal to all federal, state and local government web resources and services.